TimeCET,TemperatureF,Dew PointF,Humidity,Sea Level PressureIn,VisibilityMPH,Wind Direction,Wind SpeedMPH,Gust SpeedMPH,PrecipitationIn,Events,Conditions,WindDirDegrees,DateUTC
1:00 AM,71.6,64.4,78,30.12,6.2,East,6.9,-,N/A,,Mostly Cloudy,90,2012-11-07 00:00:00
1:50 AM,71.6,64.4,78,30.12,6.2,ESE,8.1,-,N/A,,Mostly Cloudy,120,2012-11-07 00:50:00
2:50 AM,71.6,64.4,78,30.12,6.2,ESE,6.9,-,N/A,,Mostly Cloudy,120,2012-11-07 01:50:00
3:50 AM,71.6,66.2,83,30.09,6.2,SE,6.9,-,N/A,,Mostly Cloudy,130,2012-11-07 02:50:00
5:59 AM,71.6,68.0,88,30.12,6.2,ENE,3.5,-,N/A,,Scattered Clouds,70,2012-11-07 04:59:00
6:20 AM,71.6,68.0,88,30.12,6.2,ESE,4.6,-,N/A,,Scattered Clouds,120,2012-11-07 05:20:00
6:21 AM,71.6,68.0,88,30.12,6.2,ESE,4.6,-,N/A,,Scattered Clouds,120,2012-11-07 05:21:00
6:50 AM,71.6,66.2,83,30.15,6.2,North,2.3,-,N/A,,Scattered Clouds,10,2012-11-07 05:50:00
7:50 AM,71.6,68.0,88,30.15,6.2,North,8.1,-,N/A,,Scattered Clouds,10,2012-11-07 06:50:00
8:50 AM,71.6,68.0,88,30.18,-9999.0,NNE,8.1,-,N/A,,Clear,20,2012-11-07 07:50:00
9:50 AM,71.6,66.2,83,30.18,-9999.0,NNE,13.8,-,N/A,,Clear,30,2012-11-07 08:50:00
10:50 AM,73.4,66.2,78,30.21,6.2,North,15.0,-,N/A,,Scattered Clouds,10,2012-11-07 09:50:00
11:50 AM,69.8,66.2,88,30.21,6.2,North,18.4,-,N/A,,Mostly Cloudy,10,2012-11-07 10:50:00
12:50 PM,69.8,66.2,88,30.18,6.2,North,17.3,-,N/A,,Mostly Cloudy,360,2012-11-07 11:50:00
1:50 PM,69.8,64.4,83,30.18,6.2,North,16.1,-,N/A,,Mostly Cloudy,360,2012-11-07 12:50:00
2:50 PM,69.8,62.6,78,30.18,6.2,North,18.4,-,N/A,,Mostly Cloudy,360,2012-11-07 13:50:00
3:50 PM,68.0,60.8,78,30.21,6.2,North,19.6,-,N/A,,Scattered Clouds,360,2012-11-07 14:50:00
5:50 PM,68.0,59.0,73,30.24,6.2,North,21.9,-,N/A,,Mostly Cloudy,360,2012-11-07 16:50:00
6:50 PM,68.0,57.2,68,30.24,6.2,North,19.6,-,N/A,,Partly Cloudy,360,2012-11-07 17:50:00
7:50 PM,68.0,57.2,68,30.27,6.2,North,17.3,-,N/A,,Partly Cloudy,360,2012-11-07 18:50:00
8:50 PM,66.2,57.2,73,30.27,6.2,North,18.4,-,N/A,,Partly Cloudy,360,2012-11-07 19:50:00
9:50 PM,68.0,59.0,73,30.27,6.2,North,19.6,-,N/A,,Partly Cloudy,10,2012-11-07 20:50:00